GW3437 Weather Reports


time (UTC)temp
C
wind
direction
speed
KPH
gust
KPH
rain 1hr
cm
rain 24hr
cm
rain mn
cm
humidity
%
barometer
mb
20260510071435 16 32 1.6 6.4 0.00 0.00 0.00 86 1012.7
20260510070933 16 99 3.2 6.4 0.00 0.00 0.00 87 1012.9
20260510070430 16 51 1.6 3.2 0.00 0.00 0.00 87 1012.7
20260510065926 16 111 3.2 12.9 0.00 0.00 0.00 88 1013.1
20260510065423 16 103 1.6 1.6 0.00 0.00 0.00 88 1013.3
20260510064919 16 127 1.6 11.3 0.00 0.00 0.00 89 1013.6
20260510064417 16 63 4.8 9.7 0.00 0.00 0.00 89 1014.0
20260510063913 16 81 0.0 1.6 0.00 0.00 0.00 89 1014.4
20260510063409 16 84 0.0 1.6 0.00 0.00 0.00 89 1014.6
20260510062907 16 149 0.0 4.8 0.00 0.00 0.00 89 1014.8
20260510062402 16 85 1.6 3.2 0.00 0.00 0.00 89 1015.2
20260510061858 16 39 0.0 1.6 0.00 0.00 0.00 89 1015.5
20260510061354 16 81 1.6 6.4 0.00 0.00 0.00 88 1015.6
20260510060850 16 118 0.0 3.2 0.00 0.00 0.00 88 1015.6
20260510060347 16 151 1.6 6.4 0.00 0.00 0.00 88 1015.5
20260510055843 16 71 9.7 16.1 0.00 0.00 0.00 88 1015.3
20260510055343 15 41 9.7 12.9 0.00 0.00 0.00 92 1015.3
20260510054837 15 72 9.7 14.5 0.00 0.00 0.00 99 1015.3
20260510054333 15 120 6.4 14.5 0.00 0.00 0.00 99 1015.0
20260510053827 15 69 8.0 20.9 0.00 0.00 0.00 99 1014.7
20260510053323 15 64 11.3 22.5 0.00 0.00 0.00 99 1014.8
20260510052820 15 12 4.8 11.3 0.00 0.00 0.00 99 1014.3
20260510052316 15 35 4.8 9.7 0.00 0.00 0.00 99 1014.6
20260510051812 15 68 4.8 11.3 0.00 0.00 0.00 99 1015.0
20260510051309 16 288 3.2 9.7 0.00 0.00 0.00 99 1014.9
20260510050805 16 87 6.4 17.7 0.00 0.00 0.00 99 1014.1
20260510050257 16 70 3.2 11.3 0.00 0.00 0.00 99 1013.9
20260510045753 16 96 3.2 4.8 0.00 0.61 0.61 99 1014.2
20260510045244 16 38 3.2 9.7 0.00 0.61 0.61 98 1013.8
20260510044742 16 95 1.6 3.2 0.00 0.61 0.61 98 1013.7
20260510044239 16 43 4.8 6.4 0.00 0.61 0.61 97 1013.0
20260510043734 16 98 3.2 4.8 0.13 0.61 0.61 94 1013.9
20260510043231 17 50 0.0 3.2 0.43 0.61 0.61 93 1014.4
20260510042728 17 78 3.2 11.3 1.37 0.58 0.58 91 1014.7
20260510042224 17 50 4.8 11.3 2.11 0.51 0.51 89 1015.4
20260510041721 18 61 4.8 9.7 1.37 0.33 0.33 86 1016.1
20260510041218 18 338 9.7 16.1 0.79 0.15 0.15 80 1016.6
20260510040715 20 344 8.0 22.5 0.61 0.10 0.10 77 1016.3
20260510040212 21 354 6.4 16.1 0.18 0.03 0.03 68 1015.5
20260510035707 22 182 3.2 9.7 0.00 0.00 0.00 59 1015.1
20260510035204 23 50 1.6 4.8 0.00 0.00 0.00 52 1014.0
20260510034659 23 101 1.6 6.4 0.00 0.00 0.00 51 1013.4
20260510034157 23 52 4.8 6.4 0.00 0.00 0.00 50 1012.6
20260510033653 23 69 3.2 11.3 0.00 0.00 0.00 50 1011.9
20260510033151 23 123 1.6 6.4 0.00 0.00 0.00 50 1011.4
20260510032647 23 84 4.8 9.7 0.00 0.00 0.00 50 1010.6
20260510032143 23 74 3.2 6.4 0.00 0.00 0.00 50 1010.2
20260510031637 23 32 1.6 4.8 0.00 0.00 0.00 50 1010.1
20260510031129 23 21 1.6 6.4 0.00 0.00 0.00 50 1009.7
20260510030623 23 138 1.6 11.3 0.00 0.00 0.00 50 1009.9
20260510030121 24 60 3.2 4.8 0.00 0.00 0.00 50 1010.0
20260510025618 24 130 0.0 4.8 0.00 0.00 0.00 49 1010.1
20260510025115 25 20 6.4 9.7 0.00 0.00 0.00 49 1010.4
20260510024612 25 74 3.2 9.7 0.00 0.00 0.00 48 1010.4
20260510024108 25 85 0.0 6.4 0.00 0.00 0.00 48 1010.2
20260510023604 25 161 0.0 3.2 0.00 0.00 0.00 48 1010.5
20260510023102 25 106 1.6 1.6 0.00 0.00 0.00 48 1010.4
20260510022601 25 181 0.0 1.6 0.00 0.00 0.00 48 1010.2
20260510022056 25 110 0.0 1.6 0.00 0.00 0.00 48 1010.3
20260510021552 25 69 0.0 1.6 0.00 0.00 0.00 49 1010.0
20260510021050 25 140 0.0 1.6 0.00 0.00 0.00 49 1009.9
20260510020544 25 163 0.0 3.2 0.00 0.00 0.00 49 1009.7
20260510020040 25 150 0.0 3.2 0.00 0.00 0.00 48 1009.4
20260510015536 25 183 0.0 9.7 0.00 0.00 0.00 48 1009.2
20260510015032 25 150 0.0 1.6 0.00 0.00 0.00 48 1008.8
20260510014529 25 177 0.0 3.2 0.00 0.00 0.00 47 1008.6
20260510014026 25 109 3.2 3.2 0.00 0.00 0.00 46 1008.5
20260510013520 25 60 1.6 3.2 0.00 0.00 0.00 46 1008.8
20260510013016 25 93 0.0 1.6 0.00 0.00 0.00 45 1008.5
20260510012511 25 159 0.0 1.6 0.00 0.00 0.00 45 1008.8
20260510012007 25 174 0.0 0.0 0.00 0.00 0.00 45 1008.8
20260510011501 26 189 0.0 3.2 0.00 0.00 0.00 44 1008.7
20260510010957 26 144 0.0 1.6 0.00 0.00 0.00 44 1008.6
20260510010455 26 143 0.0 4.8 0.00 0.00 0.00 43 1008.5
20260510005951 26 186 0.0 1.6 0.00 0.00 0.00 43 1008.6
20260510005447 26 207 3.2 4.8 0.00 0.00 0.00 43 1008.7
20260510004945 26 176 0.0 1.6 0.00 0.00 0.00 43 1008.6
20260510004442 26 139 0.0 1.6 0.00 0.00 0.00 43 1009.0
20260510003940 26 41 0.0 4.8 0.00 0.00 0.00 42 1009.0
20260510003437 27 149 0.0 1.6 0.00 0.00 0.00 43 1009.0
20260510002937 27 174 0.0 3.2 0.00 0.00 0.00 42 1008.7
20260510002433 27 154 4.8 4.8 0.00 0.00 0.00 42 1008.6
20260510001929 27 148 0.0 3.2 0.00 0.00 0.00 43 1008.6
20260510001427 27 203 3.2 3.2 0.00 0.00 0.00 42 1008.8
20260510000925 27 193 1.6 4.8 0.00 0.00 0.00 42 1008.8
20260510000421 27 71 0.0 4.8 0.00 0.00 0.00 41 1008.8
20260509235917 28 184 1.6 3.2 0.00 0.00 0.00 41 1008.8
20260509235409 28 230 3.2 4.8 0.00 0.00 0.00 39 1008.7
20260509234904 28 168 1.6 4.8 0.00 0.00 0.00 39 1008.8
20260509234402 28 220 3.2 6.4 0.00 0.00 0.00 39 1008.9
20260509233900 29 198 1.6 4.8 0.00 0.00 0.00 38 1009.0
20260509233357 29 181 3.2 16.1 0.00 0.00 0.00 38 1008.9
20260509232852 29 218 9.7 14.5 0.00 0.00 0.00 37 1008.8
20260509232351 30 311 1.6 11.3 0.00 0.00 0.00 36 1008.9
20260509231846 30 202 4.8 6.4 0.00 0.00 0.00 38 1008.8
20260509231344 30 273 3.2 3.2 0.00 0.00 0.00 34 1008.9
20260509230842 30 56 0.0 6.4 0.00 0.00 0.00 33 1009.0
20260509230338 30 219 0.0 6.4 0.00 0.00 0.00 33 1009.0
20260509225833 30 61 3.2 9.7 0.00 0.00 0.00 33 1009.0
20260509225331 30 95 1.6 11.3 0.00 0.00 0.00 33 1009.1
20260509224826 30 145 3.2 11.3 0.00 0.00 0.00 33 1009.2
20260509224322 30 47 1.6 6.4 0.00 0.00 0.00 33 1009.3
20260509223820 30 195 0.0 14.5 0.00 0.00 0.00 34 1009.3
20260509223316 31 180 1.6 9.7 0.00 0.00 0.00 33 1009.4
20260509222813 30 164 1.6 11.3 0.00 0.00 0.00 34 1009.5
20260509222308 30 189 8.0 11.3 0.00 0.00 0.00 33 1009.7
20260509221804 30 61 3.2 9.7 0.00 0.00 0.00 33 1009.4
20260509221302 31 68 1.6 4.8 0.00 0.00 0.00 32 1009.6
20260509220757 31 293 1.6 6.4 0.00 0.00 0.00 31 1009.7
20260509220253 31 203 1.6 4.8 0.00 0.00 0.00 30 1009.5
20260509215748 30 40 3.2 4.8 0.00 0.00 0.00 30 1009.5
20260509215245 30 238 6.4 9.7 0.00 0.00 0.00 32 1009.8
20260509214743 30 182 3.2 12.9 0.00 0.00 0.00 33 1009.7
20260509214240 30 158 3.2 16.1 0.00 0.00 0.00 34 1009.7
20260509213737 30 159 0.0 6.4 0.00 0.00 0.00 32 1009.4
20260509213232 30 79 4.8 6.4 0.00 0.00 0.00 33 1009.6
20260509212730 31 145 1.6 14.5 0.00 0.00 0.00 33 1009.8
20260509212227 30 177 6.4 9.7 0.00 0.00 0.00 31 1009.9
20260509211723 31 69 6.4 6.4 0.00 0.00 0.00 32 1009.9
20260509211219 31 259 1.6 1.6 0.00 0.00 0.00 32 1010.1
20260509210716 31 300 1.6 6.4 0.00 0.00 0.00 32 1010.2
20260509210213 30 155 1.6 3.2 0.00 0.00 0.00 33 1010.1
20260509205713 31 52 3.2 4.8 0.00 0.00 0.00 31 1010.2
20260509205213 30 83 1.6 3.2 0.00 0.00 0.00 33 1010.2
20260509204709 31 87 1.6 4.8 0.00 0.00 0.00 32 1010.2
20260509204206 31 129 1.6 4.8 0.00 0.00 0.00 33 1010.3
20260509203701 30 198 1.6 4.8 0.00 0.00 0.00 34 1010.4
20260509203200 31 189 3.2 9.7 0.00 0.00 0.00 31 1010.3
20260509202655 31 166 0.0 6.4 0.00 0.00 0.00 32 1010.4
20260509202150 31 148 1.6 6.4 0.00 0.00 0.00 32 1010.6
20260509201646 30 42 1.6 9.7 0.00 0.00 0.00 32 1010.5
20260509201144 31 147 1.6 4.8 0.00 0.00 0.00 32 1010.6
20260509200639 30 211 1.6 3.2 0.00 0.00 0.00 32 1010.6
20260509200134 30 67 3.2 9.7 0.00 0.00 0.00 32 1010.8
20260509195630 30 155 3.2 6.4 0.00 0.00 0.00 31 1010.8
20260509195126 30 122 3.2 6.4 0.00 0.00 0.00 31 1011.0
20260509194625 29 86 1.6 6.4 0.00 0.00 0.00 33 1010.8
20260509194123 29 89 0.0 9.7 0.00 0.00 0.00 32 1011.0
20260509193618 29 68 1.6 4.8 0.00 0.00 0.00 33 1011.1
20260509193114 30 51 4.8 9.7 0.00 0.00 0.00 33 1010.9
20260509192611 30 47 3.2 9.7 0.00 0.00 0.00 34 1011.1
20260509192106 29 89 1.6 6.4 0.00 0.00 0.00 36 1011.1
20260509191601 30 220 1.6 3.2 0.00 0.00 0.00 33 1011.2
20260509191057 29 93 1.6 3.2 0.00 0.00 0.00 33 1011.6
20260509190554 29 117 1.6 3.2 0.00 0.00 0.00 34 1011.4
20260509190052 30 65 3.2 11.3 0.00 0.00 0.00 34 1011.4
20260509185549 30 216 1.6 4.8 0.00 0.00 0.00 32 1011.4
20260509185045 30 26 0.0 1.6 0.00 0.00 0.00 31 1011.6
20260509184544 30 72 3.2 6.4 0.00 0.00 0.00 33 1011.7
20260509184040 30 181 0.0 4.8 0.00 0.00 0.00 32 1011.7
20260509183535 30 107 1.6 6.4 0.00 0.00 0.00 29 1011.7
20260509183031 30 77 0.0 4.8 0.00 0.00 0.00 32 1011.8
20260509182527 29 140 0.0 0.0 0.00 0.00 0.00 34 1011.9
20260509182025 28 191 6.4 6.4 0.00 0.00 0.00 36 1011.8
20260509181523 29 214 1.6 3.2 0.00 0.00 0.00 35 1011.9
20260509181020 28 46 1.6 4.8 0.00 0.00 0.00 37 1012.0
20260509180515 29 167 0.0 6.4 0.00 0.00 0.00 34 1012.1
20260509180013 29 183 1.6 3.2 0.00 0.00 0.00 34 1011.9
20260509175508 30 351 1.6 9.7 0.00 0.00 0.00 32 1012.2
20260509175005 29 143 0.0 4.8 0.00 0.00 0.00 37 1012.4
20260509174501 28 60 1.6 4.8 0.00 0.00 0.00 40 1012.4
20260509173956 29 193 3.2 4.8 0.00 0.00 0.00 37 1012.5
20260509173451 28 89 1.6 9.7 0.00 0.00 0.00 35 1012.5
20260509172948 28 182 3.2 4.8 0.00 0.00 0.00 33 1012.8
20260509172445 28 215 8.0 9.7 0.00 0.00 0.00 35 1012.8
20260509171940 28 168 3.2 6.4 0.00 0.00 0.00 35 1012.7
20260509171437 28 214 3.2 4.8 0.00 0.00 0.00 33 1012.7
20260509170933 27 219 1.6 4.8 0.00 0.00 0.00 43 1012.6
20260509170429 28 116 0.0 4.8 0.00 0.00 0.00 40 1012.7
20260509165925 27 241 1.6 3.2 0.00 0.00 0.00 45 1013.0
20260509165419 27 198 3.2 6.4 0.00 0.00 0.00 46 1012.8
20260509164914 26 157 1.6 3.2 0.00 0.00 0.00 49 1012.8
20260509164411 26 115 3.2 6.4 0.00 0.00 0.00 49 1012.9
20260509163907 26 125 1.6 6.4 0.00 0.00 0.00 50 1013.0
20260509163404 25 196 1.6 4.8 0.00 0.00 0.00 55 1013.0
20260509162903 26 62 3.2 6.4 0.00 0.00 0.00 58 1013.1
20260509162402 25 157 1.6 3.2 0.00 0.00 0.00 59 1013.0
20260509161858 25 160 1.6 4.8 0.00 0.00 0.00 60 1013.2
20260509161354 25 104 1.6 1.6 0.00 0.00 0.00 60 1013.1
20260509160850 24 129 0.0 1.6 0.00 0.00 0.00 62 1013.2
20260509160346 25 208 3.2 4.8 0.00 0.00 0.00 58 1013.1
20260509155841 26 263 0.0 1.6 0.00 0.00 0.00 58 1013.1
20260509155338 25 66 1.6 4.8 0.00 0.00 0.00 62 1013.0
20260509154834 23 113 0.0 3.2 0.00 0.00 0.00 66 1013.0
20260509154331 23 153 1.6 4.8 0.00 0.00 0.00 65 1013.0
20260509153828 23 152 0.0 3.2 0.00 0.00 0.00 62 1013.1
20260509153324 23 193 3.2 4.8 0.00 0.00 0.00 63 1013.0
20260509152822 23 263 3.2 4.8 0.00 0.00 0.00 60 1012.8
20260509152317 23 65 1.6 1.6 0.00 0.00 0.00 63 1012.7
20260509151815 23 144 0.0 0.0 0.00 0.00 0.00 67 1012.6
20260509151311 22 138 0.0 0.0 0.00 0.00 0.00 64 1013.0
20260509150810 23 72 0.0 1.6 0.00 0.00 0.00 68 1012.8
20260509150307 23 96 0.0 0.0 0.00 0.00 0.00 68 1012.8
20260509145803 22 104 0.0 1.6 0.00 0.00 0.00 72 1012.8
20260509145258 22 105 0.0 3.2 0.00 0.00 0.00 74 1012.8
20260509144755 22 104 0.0 3.2 0.00 0.00 0.00 74 1012.6
20260509144252 21 109 0.0 1.6 0.00 0.00 0.00 78 1012.4
20260509143749 21 63 3.2 3.2 0.00 0.00 0.00 79 1012.8
20260509143246 20 92 1.6 1.6 0.00 0.00 0.00 81 1012.7
20260509142742 20 122 0.0 1.6 0.00 0.00 0.00 81 1012.9
20260509142238 20 66 0.0 0.0 0.00 0.00 0.00 81 1013.0
20260509141734 19 11 1.6 3.2 0.00 0.00 0.00 84 1013.0
20260509141231 18 94 0.0 1.6 0.00 0.00 0.00 87 1013.0
20260509140728 18 333 3.2 3.2 0.00 0.00 0.00 88 1013.0
20260509140225 17 342 3.2 4.8 0.00 0.00 0.00 89 1012.8
20260509135722 17 91 1.6 3.2 0.00 0.00 0.00 91 1012.7
20260509135220 17 16 1.6 3.2 0.00 0.00 0.00 93 1012.7
20260509134717 16 131 0.0 1.6 0.00 0.00 0.00 96 1012.8
20260509134215 16 111 0.0 3.2 0.00 0.00 0.00 97 1012.7
20260509133712 16 354 3.2 3.2 0.00 0.00 0.00 98 1012.6
20260509133208 16 71 0.0 0.0 0.00 0.00 0.00 99 1012.5
20260509132707 15 113 0.0 0.0 0.00 0.00 0.00 99 1012.6
20260509132205 15 110 0.0 0.0 0.00 0.00 0.00 99 1012.5
20260509131701 15 49 1.6 1.6 0.00 0.00 0.00 99 1012.6
20260509131158 15 75 0.0 0.0 0.00 0.00 0.00 99 1012.5
20260509130654 15 110 0.0 0.0 0.00 0.00 0.00 99 1012.5
20260509130150 15 118 0.0 0.0 0.00 0.00 0.00 99 1012.4
20260509125647 14 109 0.0 0.0 0.00 0.00 0.00 99 1012.3
20260509125143 13 92 0.0 0.0 0.00 0.00 0.00 99 1012.2
20260509124640 13 93 0.0 0.0 0.00 0.00 0.00 99 1012.1
20260509124137 13 115 0.0 0.0 0.00 0.00 0.00 99 1012.1
20260509123635 14 116 0.0 0.0 0.00 0.00 0.00 99 1012.1
20260509123132 14 132 0.0 0.0 0.00 0.00 0.00 99 1012.2
20260509122627 12 147 0.0 0.0 0.00 0.00 0.00 99 1011.9
20260509122125 12 153 0.0 0.0 0.00 0.00 0.00 99 1011.8
20260509121621 12 155 0.0 0.0 0.00 0.00 0.00 99 1011.9
20260509121119 12 161 0.0 0.0 0.00 0.00 0.00 99 1011.8
20260509120617 12 126 0.0 0.0 0.00 0.00 0.00 99 1011.7
20260509120115 12 122 0.0 0.0 0.00 0.00 0.00 99 1011.8
20260509115612 12 125 0.0 0.0 0.00 0.00 0.00 99 1011.7
20260509115109 12 125 0.0 0.0 0.00 0.00 0.00 99 1011.8
20260509114607 12 176 0.0 0.0 0.00 0.00 0.00 99 1011.7
20260509114106 11 167 0.0 0.0 0.00 0.00 0.00 99 1011.6
20260509113604 11 154 0.0 0.0 0.00 0.00 0.00 98 1011.4
20260509113101 11 154 0.0 0.0 0.00 0.00 0.00 98 1011.4
20260509112557 11 154 0.0 0.0 0.00 0.00 0.00 98 1011.4
20260509112054 12 154 0.0 0.0 0.00 0.00 0.00 98 1011.4
20260509111552 12 154 0.0 0.0 0.00 0.00 0.00 98 1011.3
20260509111048 12 155 0.0 0.0 0.00 0.00 0.00 98 1011.2
20260509110545 12 123 0.0 0.0 0.00 0.00 0.00 98 1011.1
20260509110043 12 115 0.0 0.0 0.00 0.00 0.00 98 1011.0
20260509105541 12 119 0.0 0.0 0.00 0.00 0.00 98 1011.4
20260509105038 12 126 0.0 0.0 0.00 0.00 0.00 98 1011.3
20260509104535 12 125 0.0 0.0 0.00 0.00 0.00 98 1011.2
20260509104032 12 122 0.0 0.0 0.00 0.00 0.00 98 1011.3
20260509103530 12 115 0.0 0.0 0.00 0.00 0.00 98 1011.4
20260509103028 12 114 0.0 0.0 0.00 0.00 0.00 98 1011.3
20260509102525 12 117 0.0 0.0 0.00 0.00 0.00 98 1011.3
20260509102021 12 146 0.0 0.0 0.00 0.00 0.00 98 1011.4
20260509101517 12 158 0.0 0.0 0.00 0.00 0.00 98 1011.6
20260509101014 12 142 0.0 0.0 0.00 0.00 0.00 98 1011.7
20260509100512 12 142 0.0 0.0 0.00 0.00 0.00 98 1011.8
20260509100009 13 128 0.0 0.0 0.00 0.00 0.00 98 1011.4
20260509095505 13 129 0.0 0.0 0.00 0.00 0.00 98 1011.6
20260509095003 12 130 0.0 0.0 0.00 0.00 0.00 98 1011.9
20260509094459 12 148 0.0 0.0 0.00 0.00 0.00 98 1012.0
20260509093956 12 141 0.0 0.0 0.00 0.00 0.00 98 1012.1
20260509093454 12 142 0.0 0.0 0.00 0.00 0.00 98 1012.0
20260509092952 12 140 0.0 0.0 0.00 0.00 0.00 98 1011.8
20260509092449 13 140 0.0 0.0 0.00 0.00 0.00 98 1011.9
20260509091948 13 140 0.0 0.0 0.00 0.00 0.00 98 1012.0
20260509091444 13 166 0.0 0.0 0.00 0.00 0.00 98 1011.9
20260509090942 13 167 0.0 0.0 0.00 0.00 0.00 98 1011.9
20260509090439 13 180 0.0 0.0 0.00 0.00 0.00 98 1011.9
20260509085936 13 168 0.0 0.0 0.00 0.00 0.00 97 1012.0
20260509085433 13 166 0.0 0.0 0.00 0.00 0.00 97 1011.9
20260509084929 13 151 0.0 0.0 0.00 0.00 0.00 97 1011.9
20260509084426 13 135 0.0 0.0 0.00 0.00 0.00 97 1011.6
20260509083924 13 127 0.0 0.0 0.00 0.00 0.00 97 1011.8
20260509083421 13 125 0.0 0.0 0.00 0.00 0.00 97 1011.8
20260509082918 13 122 0.0 0.0 0.00 0.00 0.00 97 1011.6
20260509082415 13 144 0.0 0.0 0.00 0.00 0.00 97 1011.8
20260509081911 13 127 0.0 0.0 0.00 0.00 0.00 97 1011.9
20260509081409 13 141 0.0 0.0 0.00 0.00 0.00 97 1011.7
20260509080906 13 141 0.0 0.0 0.00 0.00 0.00 97 1011.8
20260509080404 13 142 0.0 0.0 0.00 0.00 0.00 97 1011.8
20260509075902 13 142 0.0 0.0 0.00 0.00 0.00 97 1012.1
20260509075359 13 143 0.0 0.0 0.00 0.00 0.00 96 1012.1
20260509074856 13 143 0.0 0.0 0.00 0.00 0.00 96 1012.3
20260509074354 14 143 0.0 0.0 0.00 0.00 0.00 96 1012.2
20260509073850 14 143 0.0 0.0 0.00 0.00 0.00 96 1012.3
20260509073347 14 142 0.0 0.0 0.00 0.00 0.00 96 1012.3
20260509072843 14 141 0.0 0.0 0.00 0.00 0.00 96 1012.6
20260509072339 15 142 0.0 0.0 0.00 0.00 0.00 96 1012.5